Aitkin, MN

4:39 AM CDT on June 27, 2017 (GMT -0500)
Aitkin Municipal / Steve Kurtz Field

Weather History for KAIT - January, 2014

Change the Weather History Date:

Monday, January 20, 2014

  Actual Average Record
Temperature  
Mean Temperature 6 °F -  
Max Temperature 21 °F 19 °F 43 °F (1968)
Min Temperature -9 °F -2 °F -34 °F (1970)
Degree Days  
Heating Degree Days 59    
Moisture  
Dew Point -8 °F    
Average Humidity 58    
Maximum Humidity 80    
Minimum Humidity 39    
Precipitation  
Precipitation 0.00 in - - ()
Sea Level Pressure  
Sea Level Pressure 30.08 in    
Wind  
Wind Speed 8 mph (North)    
Max Wind Speed 15 mph    
Max Gust Speed 18 mph    
Visibility 9 miles    
Events Snow    
Averages and records for this station are not official NWS values.
T = Trace of Precipitation, MM = Missing Value Source: NWS Daily Summary

Daily Weather History Graph

Daily Weather History Graph

Search for Another Location

Airport or City:

Trip Planner

Search our weather history database for the weather conditions in past years. The results will help you decide how hot, cold, wet, or windy it might be!

Date:

Astronomy

Jan. 20, 2014 Rise Set
Actual Time 7:50 AM CST 5:01 PM CST
Civil Twilight 7:17 AM CST 5:34 PM CST
Nautical Twilight 6:40 AM CST 6:11 PM CST
Astronomical Twilight 6:04 AM CST 6:47 PM CST
Moon 9:56 PM CST (1/20) 9:33 AM CST (1/20)
Length of Visible Light 10h 17m
Length of Day
9h 10m
Waning Gibbous, 82% of the Moon is Illuminated
Jan 20
Waning Gibbous
Jan 23
Last Quarter
Jan 30
New
Feb 6
First Quarter
Feb 14
Full

Hourly Weather History & Observations

Time (CST) Temp. Windchill Dew Point Humidity Pressure Visibility Wind Dir Wind Speed Gust Speed Precip Events Conditions
12:13 AM 21.2 °F 16.4 °F 15.8 °F 80% 29.66 in 2.5 mi NNW 3.5 mph - N/A Snow Light Snow
12:33 AM 21.2 °F 14.9 °F 15.8 °F 80% 29.68 in 2.0 mi NW 4.6 mph - N/A Snow Light Snow
12:52 AM 21.2 °F 13.6 °F 15.8 °F 80% 29.68 in 5.0 mi NNW 5.8 mph - N/A Snow Light Snow
1:13 AM 21.2 °F 16.4 °F 15.8 °F 80% 29.68 in 5.0 mi NNW 3.5 mph - N/A Snow Light Snow
1:33 AM 21.2 °F 13.6 °F 15.8 °F 80% 29.70 in 5.0 mi NNW 5.8 mph - N/A Snow Light Snow
1:52 AM 21.2 °F 10.1 °F 14.0 °F 74% 29.70 in 7.0 mi North 10.4 mph - N/A Snow Light Snow
2:13 AM 19.4 °F 6.0 °F 12.2 °F 74% 29.72 in 4.0 mi North 13.8 mph - N/A Snow Light Snow
2:33 AM 17.6 °F 5.7 °F 10.4 °F 73% 29.74 in 5.0 mi North 10.4 mph - N/A Snow Light Snow
2:52 AM 15.8 °F 5.1 °F 10.4 °F 79% 29.75 in 4.0 mi North 8.1 mph - N/A Snow Light Snow
3:13 AM 15.8 °F 5.1 °F 8.6 °F 73% 29.77 in 7.0 mi NNE 8.1 mph - N/A Snow Light Snow
3:33 AM 15.8 °F 8.6 °F 8.6 °F 73% 29.78 in 10.0 mi North 4.6 mph - N/A Snow Light Snow
3:52 AM 15.8 °F 7.2 °F 8.6 °F 73% 29.78 in 10.0 mi NNE 5.8 mph - N/A Snow Light Snow
4:13 AM 14.0 °F 2.9 °F 6.8 °F 73% 29.80 in 10.0 mi North 8.1 mph - N/A Snow Light Snow
4:33 AM 14.0 °F 2.0 °F 6.8 °F 73% 29.81 in 10.0 mi North 9.2 mph - N/A Snow Light Snow
4:52 AM 12.2 °F -0.2 °F 5.0 °F 73% 29.82 in 10.0 mi NNE 9.2 mph - N/A Snow Light Snow
5:13 AM 10.4 °F -2.4 °F 3.2 °F 73% 29.83 in 10.0 mi North 9.2 mph - N/A   Overcast
5:33 AM 10.4 °F -2.4 °F 3.2 °F 73% 29.84 in 10.0 mi North 9.2 mph - N/A   Overcast
5:53 AM 10.4 °F -2.4 °F 3.2 °F 73% 29.85 in 10.0 mi North 9.2 mph - N/A   Overcast
6:13 AM 10.4 °F -3.3 °F 1.4 °F 67% 29.87 in 10.0 mi North 10.4 mph - N/A   Overcast
6:33 AM 8.6 °F -6.3 °F -0.4 °F 67% 29.89 in 10.0 mi North 11.5 mph 16.1 mph N/A   Overcast
6:52 AM 8.6 °F -6.3 °F -0.4 °F 67% 29.89 in 10.0 mi North 11.5 mph 16.1 mph N/A   Overcast
7:13 AM 8.6 °F -4.7 °F -0.4 °F 67% 29.90 in 10.0 mi NE 9.2 mph - N/A   Overcast
7:32 AM 6.8 °F -10.0 °F -0.4 °F 72% 29.92 in 10.0 mi North 13.8 mph 18.4 mph N/A   Overcast
7:53 AM 6.8 °F -8.6 °F -2.2 °F 67% 29.93 in 10.0 mi North 11.5 mph - N/A   Overcast
8:13 AM 5.0 °F -11.6 °F -5.8 °F 61% 29.96 in 10.0 mi North 12.7 mph 17.3 mph N/A   Mostly Cloudy
8:32 AM 3.2 °F -14.6 °F -5.8 °F 66% 29.96 in 10.0 mi North 13.8 mph 17.3 mph N/A   Overcast
8:53 AM 3.2 °F -13.1 °F -7.6 °F 61% 29.98 in 10.0 mi NNE 11.5 mph - N/A   Mostly Cloudy
9:13 AM 3.2 °F -12.2 °F -7.6 °F 61% 30.01 in 10.0 mi North 10.4 mph - N/A   Mostly Cloudy
9:32 AM 3.2 °F -13.9 °F -7.6 °F 61% 30.02 in 10.0 mi North 12.7 mph 17.3 mph N/A   Scattered Clouds
9:53 AM 3.2 °F -10.3 °F -7.6 °F 61% 30.03 in 7.0 mi NNE 8.1 mph - N/A   Scattered Clouds
10:13 AM 1.4 °F -14.5 °F -7.6 °F 66% 30.05 in 5.0 mi North 10.4 mph - N/A   Haze
10:32 AM 1.4 °F -12.5 °F -7.6 °F 66% 30.07 in 10.0 mi North 8.1 mph - N/A   Clear
10:53 AM 1.4 °F -15.3 °F -7.6 °F 66% 30.08 in 10.0 mi North 11.5 mph - N/A   Clear
11:13 AM 1.4 °F -16.9 °F -9.4 °F 61% 30.09 in 10.0 mi North 13.8 mph - N/A   Clear
11:33 AM 1.4 °F -16.9 °F -9.4 °F 61% 30.09 in 10.0 mi North 13.8 mph - N/A   Clear
11:53 AM 3.2 °F -12.2 °F -11.2 °F 51% 30.10 in 10.0 mi North 10.4 mph - N/A   Clear
12:12 PM 3.2 °F -13.9 °F -11.2 °F 51% 30.10 in 10.0 mi North 12.7 mph 17.3 mph N/A   Clear
12:33 PM 3.2 °F -13.1 °F -11.2 °F 51% 30.10 in 10.0 mi North 11.5 mph - N/A   Clear
12:53 PM 3.2 °F -12.2 °F -11.2 °F 51% 30.12 in 10.0 mi North 10.4 mph - N/A   Clear
1:12 PM 3.2 °F -15.3 °F -11.2 °F 51% 30.13 in 10.0 mi NNW 15.0 mph - N/A   Clear
1:33 PM 3.2 °F -13.1 °F -13.0 °F 47% 30.14 in 10.0 mi North 11.5 mph 18.4 mph N/A   Clear
1:52 PM 3.2 °F -11.3 °F -14.8 °F 43% 30.15 in 10.0 mi North 9.2 mph 17.3 mph N/A   Clear
2:13 PM 3.2 °F -12.2 °F -14.8 °F 43% 30.16 in 10.0 mi North 10.4 mph - N/A   Clear
2:33 PM 3.2 °F -13.9 °F -14.8 °F 43% 30.17 in 10.0 mi North 12.7 mph - N/A   Clear
2:52 PM 3.2 °F -11.3 °F -16.6 °F 39% 30.19 in 10.0 mi North 9.2 mph - N/A   Clear
3:13 PM 3.2 °F -13.1 °F -16.6 °F 39% 30.20 in 10.0 mi NNW 11.5 mph - N/A   Clear
3:33 PM 3.2 °F -12.2 °F -14.8 °F 43% 30.22 in 10.0 mi NNW 10.4 mph 17.3 mph N/A   Clear
3:52 PM 3.2 °F -13.1 °F -16.6 °F 39% 30.23 in 10.0 mi North 11.5 mph - N/A   Clear
4:13 PM 3.2 °F -10.3 °F -16.6 °F 39% 30.24 in 10.0 mi NNW 8.1 mph - N/A   Clear
4:33 PM 3.2 °F -12.2 °F -16.6 °F 39% 30.26 in 10.0 mi NNW 10.4 mph - N/A   Clear
4:52 PM 1.4 °F -15.3 °F -16.6 °F 43% 30.27 in 10.0 mi North 11.5 mph - N/A   Clear
5:13 PM 1.4 °F -16.9 °F -16.6 °F 43% 30.29 in 10.0 mi NNW 13.8 mph 18.4 mph N/A   Clear
5:33 PM -0.4 °F -17.6 °F -18.4 °F 43% 30.29 in 10.0 mi North 11.5 mph - N/A   Clear
5:52 PM -2.2 °F -14.2 °F -20.2 °F 42% 30.31 in 10.0 mi NNW 5.8 mph 9.2 mph N/A   Clear
6:13 PM -2.2 °F -12.5 °F -20.2 °F 42% 30.32 in 10.0 mi NNW 4.6 mph - N/A   Clear
6:33 PM -2.2 °F -15.6 °F -18.4 °F 46% 30.33 in 10.0 mi NNW 6.9 mph - N/A   Clear
6:52 PM -2.2 °F -15.6 °F -18.4 °F 46% 30.34 in 10.0 mi NW 6.9 mph - N/A   Clear
7:13 PM -2.2 °F -16.8 °F -18.4 °F 46% 30.36 in 10.0 mi NW 8.1 mph - N/A   Clear
7:32 PM -2.2 °F -15.6 °F -20.2 °F 42% 30.37 in 10.0 mi NW 6.9 mph - N/A   Clear
7:53 PM -4.0 °F -16.3 °F -20.2 °F 46% 30.37 in 10.0 mi NW 5.8 mph - N/A   Clear
8:13 PM -4.0 °F -19.0 °F -20.2 °F 46% 30.38 in 10.0 mi NW 8.1 mph - N/A   Clear
8:33 PM -5.8 °F -21.2 °F -22.0 °F 46% 30.39 in 10.0 mi NW 8.1 mph - N/A   Clear
8:53 PM -5.8 °F -21.2 °F -20.2 °F 50% 30.40 in 10.0 mi NW 8.1 mph - N/A   Clear
9:13 PM -5.8 °F -18.4 °F -20.2 °F 50% 30.40 in 10.0 mi NNW 5.8 mph - N/A   Clear
9:32 PM -7.6 °F -18.8 °F -20.2 °F 54% 30.39 in 10.0 mi NW 4.6 mph - N/A   Clear
9:53 PM -7.6 °F -16.5 °F -20.2 °F 54% 30.40 in 10.0 mi NW 3.5 mph - N/A   Clear
10:13 PM -9.4 °F -18.6 °F -22.0 °F 54% 30.39 in 10.0 mi NW 3.5 mph - N/A   Clear
10:32 PM -9.4 °F -18.6 °F -22.0 °F 54% 30.40 in 10.0 mi WNW 3.5 mph - N/A   Clear
10:53 PM -9.4 °F -18.6 °F -20.2 °F 59% 30.40 in 10.0 mi NW 3.5 mph - N/A   Clear
11:13 PM -9.4 °F - -22.0 °F 54% 30.40 in 10.0 mi Calm Calm - N/A   Clear
11:32 PM -9.4 °F - -22.0 °F 54% 30.40 in 10.0 mi Calm Calm - N/A   Clear
11:53 PM -9.4 °F - -22.0 °F 54% 30.40 in 10.0 mi Calm Calm - N/A   Clear